QPF
0.00 0.00 0.00 0.00 0.00 0.00 0.00 0.00 0.00 0.00 0.02 0.08 0.17 0.24 0.28 0.25 0.23 0.22 0.12 0.07 0.02 0.01 0.02 0.01 0.01 0.02 0.06 0.05 0.05 0.09 0.09 0.04 0.01 0.02 0.04 0.01 0.00 0.00 0.00 0.00 0.00 0.00 0.00
0.00 0.00 0.00 0.00 0.00 0.00 0.00 0.00 0.00 0.00 0.01 0.04 0.08 0.13 0.17 0.13 0.13 0.14 0.12 0.08 0.04 0.02 0.02 0.02 0.03 0.06 0.11 0.14 0.13 0.19 0.19 0.10 0.03 0.06 0.14 0.08 0.02 0.00 0.00 0.00 0.00 0.00 0.00
0.00 0.00 0.00 0.00 0.00 0.00 0.00 0.00 0.00 0.00 0.00 0.01 0.03 0.06 0.14 0.17 0.22 0.22 0.20 0.16 0.10 0.05 0.03 0.03 0.04 0.06 0.09 0.13 0.18 0.22 0.25 0.20 0.09 0.04 0.10 0.17 0.14 0.04 0.00 0.00 0.00 0.00 0.00
0.00 0.00 0.00 0.00 0.00 0.00 0.00 0.00 0.00 0.00 0.00 0.00 0.02 0.06 0.12 0.15 0.14 0.13 0.17 0.13 0.11 0.09 0.08 0.07 0.08 0.07 0.07 0.10 0.13 0.16 0.22 0.25 0.18 0.09 0.04 0.05 0.08 0.06 0.03 0.01 0.00 0.00 0.00
0.00 0.00 0.00 0.00 0.00 0.00 0.00 0.00 0.00 0.00 0.00 0.00 0.01 0.04 0.07 0.08 0.07 0.07 0.15 0.14 0.11 0.11 0.09 0.09 0.10 0.08 0.08 0.08 0.12 0.17 0.22 0.23 0.20 0.15 0.08 0.04 0.03 0.02 0.07 0.08 0.02 0.00 0.00
0.00 0.00 0.00 0.00 0.00 0.00 0.00 0.00 0.00 0.00 0.00 0.00 0.00 0.01 0.03 0.04 0.05 0.07 0.11 0.13 0.13 0.12 0.11 0.10 0.10 0.10 0.10 0.11 0.14 0.18 0.24 0.24 0.25 0.19 0.12 0.08 0.05 0.02 0.04 0.10 0.08 0.03 0.00
0.00 0.00 0.00 0.00 0.00 0.00 0.00 0.00 0.00 0.00 0.00 0.00 0.00 0.00 0.01 0.01 0.02 0.03 0.05 0.06 0.08 0.09 0.10 0.12 0.13 0.13 0.12 0.11 0.16 0.22 0.25 0.27 0.32 0.26 0.15 0.09 0.04 0.01 0.01 0.04 0.07 0.08 0.03
0.00 0.00 0.00 0.00 0.00 0.00 0.00 0.00 0.00 0.00 0.00 0.00 0.00 0.00 0.00 0.00 0.00 0.01 0.03 0.05 0.06 0.06 0.05 0.08 0.14 0.18 0.19 0.17 0.17 0.23 0.24 0.26 0.29 0.28 0.23 0.20 0.10 0.03 0.01 0.03 0.11 0.16 0.15
0.00 0.00 0.00 0.00 0.00 0.00 0.00 0.00 0.00 0.00 0.00 0.00 0.00 0.00 0.00 0.00 0.00 0.00 0.02 0.04 0.04 0.03 0.02 0.04 0.09 0.14 0.16 0.17 0.19 0.23 0.25 0.25 0.29 0.31 0.30 0.27 0.17 0.07 0.03 0.02 0.05 0.14 0.18
0.02 0.01 0.00 0.00 0.00 0.00 0.00 0.00 0.00 0.00 0.00 0.00 0.00 0.00 0.00 0.00 0.00 0.01 0.01 0.01 0.01 0.01 0.03 0.05 0.07 0.08 0.10 0.12 0.15 0.19 0.25 0.28 0.31 0.33 0.34 0.34 0.28 0.20 0.11 0.04 0.03 0.06 0.15
0.11 0.08 0.05 0.03 0.00 0.00 0.00 0.00 0.00 0.00 0.00 0.00 0.00 0.00 0.00 0.00 0.00 0.00 0.00 0.00 0.01 0.01 0.02 0.05 0.07 0.05 0.05 0.07 0.12 0.19 0.26 0.32 0.33 0.35 0.36 0.35 0.30 0.29 0.21 0.13 0.08 0.07 0.12
0.04 0.04 0.04 0.02 0.01 0.00 0.00 0.00 0.00 0.00 0.00 0.00 0.00 0.00 0.00 0.00 0.00 0.00 0.00 0.00 0.00 0.01 0.01 0.05 0.09 0.08 0.07 0.07 0.10 0.16 0.24 0.30 0.33 0.34 0.33 0.32 0.28 0.28 0.24 0.19 0.14 0.10 0.08
0.01 0.00 0.00 0.00 0.00 0.00 0.00 0.00 0.01 0.00 0.00 0.00 0.00 0.00 0.00 0.00 0.00 0.00 0.00 0.00 0.01 0.01 0.02 0.04 0.07 0.10 0.09 0.08 0.07 0.10 0.15 0.19 0.23 0.27 0.27 0.26 0.23 0.21 0.20 0.16 0.12 0.09 0.07
0.01 0.00 0.00 0.00 0.00 0.00 0.00 0.00 0.00 0.00 0.00 0.00 0.00 0.00 0.00 0.00 0.00 0.00 0.00 0.00 0.01 0.02 0.02 0.05 0.05 0.04 0.05 0.06 0.05 0.04 0.05 0.08 0.11 0.14 0.15 0.16 0.14 0.13 0.12 0.11 0.09 0.09 0.10
0.00 0.00 0.00 0.00 0.00 0.00 0.00 0.00 0.00 0.01 0.01 0.00 0.00 0.00 0.00 0.00 0.00 0.00 0.00 0.00 0.01 0.01 0.02 0.04 0.04 0.03 0.03 0.05 0.06 0.06 0.04 0.04 0.04 0.04 0.06 0.06 0.07 0.06 0.06 0.06 0.08 0.12 0.16
0.00 0.00 0.00 0.00 0.00 0.00 0.00 0.00 0.00 0.01 0.01 0.00 0.00 0.00 0.00 0.00 0.01 0.01 0.01 0.01 0.01 0.01 0.03 0.05 0.05 0.05 0.04 0.08 0.07 0.05 0.03 0.04 0.03 0.02 0.02 0.02 0.02 0.02 0.02 0.02 0.03 0.08 0.14
0.00 0.00 0.00 0.00 0.00 0.00 0.00 0.01 0.00 0.01 0.01 0.00 0.00 0.00 0.01 0.01 0.02 0.02 0.03 0.04 0.05 0.05 0.06 0.06 0.06 0.06 0.09 0.07 0.02 0.01 0.02 0.03 0.02 0.02 0.02 0.02 0.01 0.01 0.01 0.02 0.01 0.01 0.03
0.01 0.01 0.01 0.01 0.01 0.01 0.01 0.01 0.01 0.01 0.01 0.02 0.02 0.02 0.03 0.05 0.06 0.06 0.07 0.10 0.10 0.08 0.10 0.10 0.07 0.09 0.15 0.08 0.02 0.01 0.00 0.00 0.01 0.01 0.01 0.02 0.02 0.01 0.03 0.06 0.09 0.10 0.08
0.02 0.02 0.02 0.02 0.02 0.02 0.01 0.02 0.02 0.03 0.03 0.04 0.03 0.03 0.03 0.04 0.05 0.07 0.10 0.11 0.12 0.15 0.14 0.15 0.15 0.17 0.16 0.09 0.02 0.01 0.00 0.00 0.00 0.00 0.01 0.02 0.03 0.04 0.06 0.10 0.15 0.17 0.15
0.01 0.01 0.01 0.01 0.01 0.01 0.01 0.01 0.01 0.01 0.01 0.01 0.01 0.00 0.00 0.01 0.02 0.04 0.06 0.08 0.09 0.13 0.14 0.13 0.12 0.14 0.14 0.11 0.04 0.02 0.01 0.02 0.02 0.03 0.03 0.06 0.04 0.06 0.06 0.08 0.12 0.12 0.11
0.00 0.00 0.00 0.00 0.00 0.00 0.01 0.01 0.01 0.01 0.00 0.00 0.00 0.00 0.00 0.00 0.01 0.02 0.03 0.04 0.06 0.08 0.10 0.13 0.13 0.11 0.13 0.15 0.10 0.05 0.04 0.07 0.09 0.10 0.08 0.07 0.05 0.03 0.02 0.03 0.07 0.06 0.07
0.00 0.00 0.00 0.00 0.00 0.00 0.00 0.00 0.00 0.00 0.00 0.00 0.00 0.00 0.00 0.00 0.00 0.01 0.02 0.02 0.03 0.04 0.06 0.09 0.10 0.10 0.13 0.15 0.13 0.08 0.05 0.07 0.11 0.14 0.11 0.08 0.07 0.02 0.01 0.01 0.04 0.03 0.03
0.00 0.00 0.00 0.00 0.00 0.00 0.00 0.00 0.00 0.00 0.00 0.00 0.00 0.00 0.00 0.00 0.00 0.01 0.01 0.02 0.02 0.03 0.05 0.08 0.12 0.13 0.13 0.13 0.11 0.07 0.04 0.04 0.09 0.11 0.11 0.09 0.04 0.01 0.01 0.01 0.01 0.01 0.03
0.00 0.00 0.00 0.00 0.00 0.00 0.00 0.00 0.00 0.00 0.00 0.00 0.00 0.00 0.00 0.00 0.01 0.01 0.02 0.03 0.03 0.06 0.10 0.12 0.15 0.16 0.16 0.14 0.10 0.07 0.06 0.05 0.07 0.06 0.03 0.02 0.01 0.01 0.03 0.02 0.01 0.01 0.04
0.00 0.00 0.00 0.00 0.00 0.00 0.00 0.00 0.00 0.00 0.00 0.00 0.00 0.00 0.00 0.00 0.00 0.00 0.00 0.01 0.02 0.03 0.08 0.12 0.15 0.18 0.19 0.15 0.10 0.08 0.10 0.12 0.16 0.17 0.10 0.05 0.04 0.03 0.04 0.04 0.03 0.03 0.03
0.00 0.00 0.00 0.00 0.00 0.00 0.00 0.00 0.00 0.00 0.00 0.00 0.00 0.00 0.00 0.00 0.00 0.00 0.00 0.00 0.00 0.01 0.02 0.03 0.06 0.05 0.05 0.04 0.02 0.02 0.03 0.05 0.09 0.17 0.21 0.21 0.21 0.21 0.20 0.16 0.10 0.07 0.06
MSLP
1003.54 1003.83 1004.17 1004.50 1004.80 1005.05 1005.28 1005.51 1005.81 1006.20 1006.68 1007.27 1007.90 1008.54 1009.14 1009.63 1009.98 1010.21 1010.32 1010.37 1010.41 1010.49 1010.67 1010.97 1011.39 1011.91 1012.49 1013.09 1013.68 1014.22 1014.70 1015.11 1015.47 1015.77 1016.02 1016.22 1016.36 1016.44 1016.46 1016.42 1016.35 1016.28 1016.23
1003.24 1003.66 1004.15 1004.63 1005.03 1005.35 1005.59 1005.82 1006.07 1006.40 1006.84 1007.39 1008.00 1008.64 1009.24 1009.74 1010.11 1010.33 1010.43 1010.45 1010.46 1010.52 1010.67 1010.95 1011.36 1011.89 1012.49 1013.12 1013.74 1014.32 1014.84 1015.29 1015.68 1016.00 1016.26 1016.46 1016.60 1016.66 1016.66 1016.60 1016.50 1016.41 1016.35
1002.92 1003.47 1004.10 1004.73 1005.26 1005.66 1005.96 1006.19 1006.42 1006.70 1007.08 1007.56 1008.13 1008.73 1009.31 1009.80 1010.15 1010.37 1010.47 1010.48 1010.48 1010.52 1010.66 1010.93 1011.33 1011.84 1012.43 1013.06 1013.69 1014.27 1014.80 1015.27 1015.67 1016.01 1016.30 1016.52 1016.68 1016.76 1016.77 1016.72 1016.64 1016.55 1016.49
1002.62 1003.27 1004.04 1004.80 1005.46 1005.96 1006.31 1006.56 1006.77 1007.01 1007.32 1007.73 1008.23 1008.77 1009.29 1009.75 1010.08 1010.29 1010.39 1010.41 1010.42 1010.47 1010.61 1010.87 1011.25 1011.74 1012.31 1012.90 1013.50 1014.06 1014.57 1015.03 1015.43 1015.80 1016.11 1016.38 1016.58 1016.71 1016.77 1016.76 1016.71 1016.64 1016.60
1002.44 1003.16 1004.02 1004.88 1005.63 1006.21 1006.61 1006.88 1007.07 1007.27 1007.52 1007.85 1008.27 1008.73 1009.19 1009.60 1009.91 1010.11 1010.21 1010.25 1010.28 1010.35 1010.50 1010.76 1011.13 1011.59 1012.11 1012.65 1013.19 1013.70 1014.17 1014.60 1015.00 1015.37 1015.72 1016.03 1016.30 1016.50 1016.62 1016.68 1016.68 1016.65 1016.62
1002.46 1003.20 1004.09 1004.99 1005.78 1006.40 1006.83 1007.11 1007.29 1007.44 1007.63 1007.90 1008.23 1008.62 1009.02 1009.37 1009.65 1009.85 1009.96 1010.03 1010.09 1010.18 1010.35 1010.62 1010.97 1011.40 1011.87 1012.35 1012.82 1013.26 1013.66 1014.05 1014.43 1014.80 1015.17 1015.53 1015.86 1016.13 1016.33 1016.46 1016.52 1016.54 1016.54
1002.73 1003.42 1004.28 1005.14 1005.92 1006.53 1006.96 1007.22 1007.39 1007.51 1007.66 1007.87 1008.15 1008.47 1008.81 1009.12 1009.38 1009.57 1009.69 1009.78 1009.87 1010.00 1010.19 1010.47 1010.81 1011.21 1011.63 1012.04 1012.44 1012.80 1013.15 1013.48 1013.82 1014.18 1014.56 1014.95 1015.32 1015.66 1015.94 1016.13 1016.25 1016.31 1016.34
1003.24 1003.82 1004.57 1005.34 1006.03 1006.58 1006.96 1007.21 1007.35 1007.47 1007.60 1007.78 1008.02 1008.31 1008.61 1008.89 1009.13 1009.31 1009.44 1009.55 1009.67 1009.82 1010.04 1010.32 1010.66 1011.04 1011.42 1011.79 1012.12 1012.42 1012.70 1012.97 1013.27 1013.60 1013.97 1014.37 1014.78 1015.16 1015.49 1015.74 1015.91 1016.01 1016.06
1003.90 1004.33 1004.90 1005.51 1006.07 1006.52 1006.83 1007.04 1007.18 1007.29 1007.43 1007.62 1007.86 1008.14 1008.43 1008.69 1008.92 1009.09 1009.23 1009.35 1009.49 1009.66 1009.90 1010.20 1010.54 1010.91 1011.27 1011.61 1011.90 1012.16 1012.38 1012.61 1012.86 1013.15 1013.50 1013.89 1014.30 1014.70 1015.06 1015.36 1015.57 1015.70 1015.77
1004.59 1004.82 1005.19 1005.60 1005.98 1006.30 1006.54 1006.71 1006.85 1006.99 1007.17 1007.39 1007.67 1007.96 1008.26 1008.52 1008.74 1008.91 1009.05 1009.17 1009.32 1009.51 1009.76 1010.07 1010.43 1010.81 1011.17 1011.51 1011.79 1012.02 1012.22 1012.41 1012.62 1012.87 1013.18 1013.54 1013.94 1014.34 1014.71 1015.03 1015.27 1015.43 1015.53
1005.17 1005.19 1005.33 1005.53 1005.74 1005.92 1006.08 1006.22 1006.37 1006.56 1006.80 1007.09 1007.42 1007.77 1008.09 1008.37 1008.59 1008.75 1008.88 1009.00 1009.14 1009.33 1009.59 1009.92 1010.30 1010.70 1011.10 1011.45 1011.75 1012.00 1012.19 1012.36 1012.54 1012.76 1013.02 1013.34 1013.70 1014.08 1014.45 1014.78 1015.04 1015.23 1015.35
1005.54 1005.36 1005.29 1005.29 1005.33 1005.40 1005.49 1005.62 1005.81 1006.06 1006.37 1006.75 1007.15 1007.55 1007.91 1008.20 1008.42 1008.58 1008.69 1008.79 1008.92 1009.10 1009.37 1009.71 1010.12 1010.56 1010.99 1011.39 1011.73 1012.01 1012.22 1012.39 1012.55 1012.73 1012.95 1013.22 1013.54 1013.89 1014.24 1014.57 1014.85 1015.07 1015.23
1005.70 1005.35 1005.10 1004.93 1004.84 1004.82 1004.87 1005.00 1005.23 1005.55 1005.95 1006.40 1006.87 1007.32 1007.71 1008.02 1008.24 1008.38 1008.47 1008.54 1008.65 1008.82 1009.08 1009.43 1009.86 1010.33 1010.82 1011.27 1011.66 1011.98 1012.22 1012.41 1012.56 1012.72 1012.89 1013.12 1013.39 1013.70 1014.03 1014.35 1014.65 1014.90 1015.10
1005.71 1005.22 1004.84 1004.56 1004.38 1004.30 1004.34 1004.49 1004.76 1005.14 1005.60 1006.11 1006.63 1007.12 1007.53 1007.84 1008.05 1008.16 1008.22 1008.27 1008.35 1008.49 1008.74 1009.09 1009.53 1010.03 1010.54 1011.04 1011.48 1011.85 1012.12 1012.33 1012.48 1012.61 1012.75 1012.93 1013.15 1013.42 1013.72 1014.04 1014.35 1014.63 1014.87
1005.69 1005.12 1004.66 1004.31 1004.09 1003.99 1004.03 1004.21 1004.51 1004.93 1005.43 1005.98 1006.51 1007.01 1007.41 1007.70 1007.89 1007.97 1008.00 1008.01 1008.05 1008.17 1008.38 1008.72 1009.15 1009.65 1010.19 1010.71 1011.18 1011.58 1011.88 1012.10 1012.25 1012.36 1012.47 1012.60 1012.78 1013.00 1013.28 1013.58 1013.90 1014.21 1014.48
1005.77 1005.16 1004.68 1004.32 1004.10 1004.01 1004.07 1004.26 1004.59 1005.02 1005.52 1006.05 1006.57 1007.03 1007.40 1007.66 1007.80 1007.85 1007.84 1007.81 1007.82 1007.89 1008.07 1008.37 1008.77 1009.25 1009.77 1010.29 1010.77 1011.18 1011.49 1011.72 1011.86 1011.96 1012.04 1012.13 1012.26 1012.44 1012.68 1012.97 1013.28 1013.60 1013.91
1006.06 1005.46 1005.00 1004.67 1004.48 1004.43 1004.50 1004.70 1005.02 1005.42 1005.88 1006.36 1006.82 1007.22 1007.53 1007.73 1007.83 1007.84 1007.79 1007.73 1007.69 1007.73 1007.86 1008.10 1008.45 1008.89 1009.37 1009.86 1010.32 1010.71 1011.02 1011.23 1011.37 1011.45 1011.50 1011.56 1011.65 1011.79 1011.99 1012.25 1012.55 1012.87 1013.19
1006.59 1006.04 1005.64 1005.37 1005.23 1005.21 1005.31 1005.50 1005.78 1006.12 1006.50 1006.89 1007.26 1007.56 1007.80 1007.94 1007.98 1007.95 1007.88 1007.79 1007.72 1007.71 1007.80 1007.98 1008.26 1008.62 1009.04 1009.47 1009.88 1010.24 1010.52 1010.73 1010.86 1010.92 1010.96 1010.99 1011.05 1011.15 1011.31 1011.53 1011.80 1012.11 1012.44
1007.30 1006.84 1006.52 1006.33 1006.24 1006.26 1006.36 1006.53 1006.75 1007.01 1007.28 1007.56 1007.81 1008.02 1008.16 1008.24 1008.24 1008.19 1008.09 1007.99 1007.90 1007.87 1007.90 1008.02 1008.22 1008.50 1008.84 1009.19 1009.54 1009.85 1010.11 1010.29 1010.41 1010.48 1010.51 1010.53 1010.56 1010.63 1010.76 1010.94 1011.18 1011.46 1011.76
1008.09 1007.72 1007.49 1007.38 1007.36 1007.40 1007.49 1007.62 1007.77 1007.93 1008.10 1008.25 1008.39 1008.50 1008.57 1008.59 1008.57 1008.50 1008.41 1008.31 1008.22 1008.16 1008.16 1008.22 1008.35 1008.55 1008.79 1009.07 1009.34 1009.60 1009.82 1009.99 1010.11 1010.18 1010.22 1010.24 1010.27 1010.33 1010.43 1010.58 1010.78 1011.02 1011.29
1008.82 1008.55 1008.41 1008.37 1008.39 1008.45 1008.53 1008.61 1008.69 1008.76 1008.82 1008.86 1008.90 1008.93 1008.94 1008.93 1008.90 1008.84 1008.77 1008.69 1008.62 1008.56 1008.54 1008.56 1008.62 1008.74 1008.91 1009.10 1009.31 1009.51 1009.70 1009.86 1009.98 1010.07 1010.12 1010.17 1010.21 1010.27 1010.35 1010.47 1010.64 1010.84 1011.08
1009.38 1009.20 1009.13 1009.15 1009.21 1009.28 1009.34 1009.38 1009.39 1009.38 1009.36 1009.32 1009.29 1009.26 1009.24 1009.22 1009.20 1009.18 1009.15 1009.11 1009.06 1009.02 1008.99 1008.98 1009.00 1009.06 1009.15 1009.27 1009.42 1009.57 1009.73 1009.87 1010.00 1010.11 1010.19 1010.27 1010.33 1010.40 1010.49 1010.60 1010.74 1010.90 1011.10
1009.71 1009.60 1009.60 1009.65 1009.73 1009.80 1009.85 1009.86 1009.83 1009.77 1009.69 1009.61 1009.53 1009.48 1009.46 1009.45 1009.46 1009.48 1009.50 1009.51 1009.51 1009.50 1009.48 1009.46 1009.45 1009.45 1009.48 1009.54 1009.63 1009.73 1009.86 1009.99 1010.12 1010.24 1010.35 1010.46 1010.55 1010.65 1010.74 1010.85 1010.98 1011.12 1011.28
1009.82 1009.77 1009.80 1009.87 1009.96 1010.03 1010.07 1010.06 1010.01 1009.93 1009.83 1009.73 1009.66 1009.61 1009.60 1009.63 1009.68 1009.75 1009.82 1009.88 1009.93 1009.95 1009.95 1009.93 1009.91 1009.88 1009.86 1009.87 1009.90 1009.95 1010.04 1010.14 1010.26 1010.39 1010.53 1010.65 1010.78 1010.89 1011.01 1011.12 1011.24 1011.36 1011.50
1009.78 1009.75 1009.79 1009.87 1009.96 1010.03 1010.06 1010.05 1010.01 1009.93 1009.85 1009.77 1009.71 1009.69 1009.71 1009.77 1009.87 1009.99 1010.11 1010.22 1010.31 1010.37 1010.39 1010.38 1010.35 1010.30 1010.25 1010.20 1010.18 1010.19 1010.23 1010.30 1010.39 1010.51 1010.64 1010.78 1010.92 1011.05 1011.18 1011.30 1011.42 1011.54 1011.66
1009.67 1009.64 1009.67 1009.73 1009.81 1009.88 1009.92 1009.93 1009.91 1009.87 1009.82 1009.78 1009.76 1009.77 1009.83 1009.93 1010.05 1010.20 1010.36 1010.51 1010.63 1010.72 1010.77 1010.77 1010.74 1010.68 1010.61 1010.53 1010.46 1010.42 1010.41 1010.43 1010.48 1010.57 1010.68 1010.81 1010.94 1011.09 1011.22 1011.35 1011.47 1011.58 1011.69
Thickness
5820 5821 5820 5817 5814 5809 5806 5802 5796 5793 5788 5780 5773 5768 5763 5761 5759 5757 5754 5751 5749 5747 5744 5739 5735 5732 5728 5724 5721 5718 5714 5711 5711 5706 5701 5703 5708 5707 5706 5707 5708 5709 5710
5814 5811 5811 5808 5805 5801 5798 5796 5792 5788 5784 5777 5771 5766 5761 5758 5756 5754 5750 5747 5744 5742 5740 5736 5731 5727 5724 5721 5717 5713 5708 5706 5707 5701 5693 5690 5693 5699 5704 5704 5704 5705 5707
5807 5803 5802 5800 5797 5793 5790 5787 5785 5782 5777 5772 5766 5761 5755 5751 5748 5745 5742 5742 5739 5737 5735 5732 5728 5723 5719 5715 5712 5709 5703 5698 5700 5703 5695 5687 5684 5690 5697 5700 5702 5703 5704
5807 5798 5796 5793 5790 5787 5785 5782 5778 5777 5771 5766 5759 5752 5745 5740 5740 5740 5738 5736 5734 5732 5730 5727 5724 5719 5715 5711 5709 5706 5702 5697 5692 5696 5701 5702 5698 5691 5688 5695 5700 5702 5702
5800 5792 5791 5788 5786 5782 5778 5777 5772 5769 5765 5761 5755 5748 5743 5739 5739 5738 5734 5730 5728 5726 5724 5722 5718 5715 5711 5708 5706 5704 5700 5697 5693 5691 5695 5700 5702 5702 5692 5687 5693 5698 5701
5793 5787 5785 5781 5776 5773 5771 5769 5765 5761 5758 5755 5751 5745 5740 5736 5733 5730 5726 5723 5721 5719 5718 5716 5713 5711 5708 5705 5703 5702 5699 5696 5693 5692 5693 5696 5697 5697 5696 5691 5691 5693 5698
5782 5776 5772 5768 5764 5763 5763 5762 5758 5753 5751 5748 5747 5745 5740 5736 5731 5727 5722 5717 5714 5711 5711 5710 5708 5706 5705 5703 5702 5700 5698 5696 5693 5691 5691 5695 5699 5701 5701 5697 5693 5694 5698
5772 5768 5764 5761 5758 5758 5757 5756 5753 5748 5746 5744 5744 5743 5739 5731 5727 5724 5719 5714 5710 5708 5707 5705 5704 5703 5702 5702 5700 5698 5697 5695 5692 5690 5690 5691 5696 5701 5702 5699 5695 5690 5691
5765 5763 5760 5758 5755 5754 5753 5752 5748 5744 5741 5739 5739 5736 5734 5728 5723 5719 5716 5712 5709 5706 5704 5702 5700 5699 5699 5698 5698 5696 5695 5694 5691 5688 5687 5688 5691 5696 5700 5701 5699 5690 5684
5759 5759 5757 5756 5754 5753 5750 5748 5746 5742 5738 5736 5734 5731 5727 5723 5718 5715 5711 5709 5707 5704 5700 5698 5696 5695 5694 5693 5692 5691 5691 5689 5687 5685 5684 5683 5686 5689 5693 5696 5698 5696 5690
5736 5740 5746 5751 5753 5752 5748 5744 5742 5739 5735 5732 5729 5724 5720 5717 5713 5710 5707 5705 5702 5700 5697 5694 5692 5690 5688 5687 5686 5685 5684 5683 5681 5680 5679 5679 5680 5681 5684 5688 5690 5692 5691
5741 5743 5744 5748 5750 5750 5748 5744 5741 5737 5732 5729 5725 5720 5717 5712 5708 5706 5704 5702 5699 5696 5694 5691 5688 5686 5684 5683 5681 5680 5679 5677 5676 5675 5674 5673 5674 5674 5676 5678 5681 5684 5687
5737 5743 5745 5746 5746 5746 5745 5744 5740 5736 5731 5725 5720 5716 5712 5708 5705 5704 5702 5700 5696 5693 5691 5688 5685 5682 5680 5678 5677 5675 5674 5673 5671 5670 5669 5668 5668 5668 5668 5671 5674 5677 5681
5731 5735 5738 5741 5743 5743 5742 5741 5738 5735 5729 5721 5715 5711 5709 5706 5704 5702 5699 5696 5694 5690 5688 5686 5683 5680 5677 5675 5673 5671 5669 5668 5667 5666 5665 5664 5664 5664 5663 5665 5668 5671 5673
5725 5730 5733 5736 5738 5738 5738 5737 5735 5732 5725 5717 5710 5707 5706 5704 5701 5697 5694 5692 5689 5688 5686 5683 5680 5678 5674 5672 5670 5667 5666 5664 5662 5662 5662 5662 5662 5662 5662 5663 5664 5666 5666
5719 5725 5729 5731 5732 5733 5732 5731 5729 5726 5721 5713 5707 5705 5702 5699 5696 5692 5689 5686 5683 5682 5680 5678 5675 5673 5672 5670 5667 5665 5664 5662 5661 5660 5661 5662 5661 5661 5661 5662 5663 5663 5663
5709 5715 5719 5723 5726 5729 5727 5722 5721 5719 5714 5708 5704 5701 5696 5692 5689 5686 5683 5680 5677 5675 5672 5671 5670 5668 5666 5665 5662 5661 5660 5660 5660 5661 5661 5662 5663 5662 5661 5661 5661 5662 5663
5697 5704 5710 5713 5717 5719 5718 5715 5711 5707 5702 5697 5693 5690 5687 5684 5681 5678 5676 5674 5672 5669 5666 5664 5664 5662 5660 5658 5657 5656 5654 5655 5658 5660 5662 5662 5663 5663 5662 5661 5659 5660 5661
5687 5693 5699 5702 5704 5705 5705 5702 5696 5692 5687 5683 5680 5678 5676 5672 5670 5667 5666 5666 5664 5663 5661 5660 5658 5655 5654 5653 5652 5650 5648 5649 5652 5656 5659 5660 5660 5661 5660 5657 5656 5656 5657
5681 5685 5689 5692 5691 5692 5691 5687 5683 5679 5675 5672 5670 5668 5665 5662 5659 5658 5658 5658 5657 5656 5656 5654 5653 5651 5649 5647 5646 5644 5643 5643 5645 5649 5652 5653 5653 5653 5653 5652 5651 5650 5651
5675 5678 5679 5679 5680 5681 5679 5674 5671 5668 5667 5666 5663 5660 5658 5655 5653 5651 5650 5650 5650 5649 5648 5646 5645 5645 5644 5641 5639 5637 5636 5636 5637 5639 5642 5644 5644 5645 5645 5646 5646 5647 5648
5671 5672 5671 5671 5672 5672 5670 5665 5663 5664 5663 5660 5657 5655 5652 5649 5647 5645 5644 5643 5642 5640 5638 5636 5635 5635 5634 5632 5629 5628 5628 5628 5628 5630 5634 5636 5636 5637 5638 5639 5640 5641 5642
5669 5669 5667 5667 5667 5666 5664 5660 5659 5661 5659 5655 5652 5650 5647 5643 5640 5638 5637 5636 5634 5632 5629 5628 5626 5624 5623 5621 5619 5619 5619 5619 5620 5623 5626 5627 5629 5630 5630 5632 5633 5634 5634
5668 5667 5666 5664 5662 5663 5661 5659 5658 5657 5656 5651 5647 5644 5640 5636 5633 5630 5628 5627 5625 5623 5621 5619 5616 5614 5612 5610 5610 5610 5610 5611 5613 5615 5617 5619 5620 5621 5624 5625 5625 5627 5628
5669 5666 5664 5660 5661 5661 5658 5656 5654 5653 5651 5648 5643 5639 5634 5630 5626 5621 5616 5616 5613 5611 5609 5607 5606 5602 5599 5596 5598 5599 5602 5604 5607 5609 5610 5611 5613 5614 5617 5619 5620 5622 5622
5670 5666 5662 5660 5660 5659 5656 5652 5650 5649 5646 5641 5637 5633 5629 5626 5623 5619 5613 5607 5606 5604 5601 5598 5596 5592 5590 5589 5590 5591 5594 5597 5601 5603 5604 5605 5608 5609 5611 5613 5614 5615 5616